Wind_Speed
44 45 46 47 49 51 52 51 49 48 48 48 48 46 45 44 45 44 44 44 42 41 39 38 37 38 39 40 40 41 41 41 42 42 43 43 43 42 41 41 40 40 39 39 39 39 40 40 38 36 35 35 34 32 30 29 30 29 29 28 26 25 25 27 29 30 26 25 27 29 31 32 31 29 29 28 27 27 27 27 28 29 29 30 29
43 43 43 44 47 49 48 46 44 43 43 44 44 43 43 42 42 42 40 38 37 37 37 36 37 38 39 40 41 41 42 42 42 43 43 42 41 41 40 39 39 38 38 38 38 38 38 38 36 34 34 35 34 32 30 30 30 30 28 27 26 24 25 26 28 30 29 27 28 30 31 32 30 29 29 29 28 28 28 28 29 29 29 29 29
42 42 41 42 44 45 44 43 42 42 44 44 44 44 43 42 42 41 38 36 36 37 37 37 37 38 39 40 40 41 42 42 42 42 41 40 40 39 38 38 38 38 38 38 37 37 37 36 35 34 34 35 34 32 32 31 31 30 28 26 26 25 25 26 28 30 30 30 30 30 31 31 30 29 29 29 29 29 30 29 29 28 28 28 29
39 41 41 41 42 43 43 43 44 45 46 46 45 44 43 42 41 40 38 37 38 39 39 38 38 38 39 39 39 40 41 41 41 40 40 39 38 38 37 37 37 37 37 37 36 36 36 36 35 34 34 35 34 33 33 32 30 29 27 27 27 26 26 27 28 30 32 33 32 31 31 30 29 29 29 30 29 30 30 29 28 27 28 28 28
35 38 39 40 42 43 43 44 46 48 49 48 47 45 44 42 41 40 39 38 38 39 39 39 39 40 39 39 39 39 40 39 39 39 38 37 37 36 36 36 36 36 36 36 35 35 36 36 35 35 36 36 36 34 33 31 30 29 29 28 27 27 27 27 29 31 33 34 34 33 31 30 29 29 30 30 30 29 28 27 27 27 27 27 27
34 36 38 39 42 44 45 45 47 48 49 49 48 46 44 44 43 42 41 41 41 41 41 41 41 41 40 39 39 38 38 38 38 37 36 36 35 35 35 35 35 35 35 35 36 36 36 36 36 37 38 37 36 34 32 31 31 31 30 29 28 29 29 29 31 32 34 34 35 34 32 30 30 29 29 30 30 29 27 26 25 26 27 27 27
35 36 36 38 40 42 44 45 46 48 49 49 49 47 45 44 43 43 42 42 42 42 42 41 40 39 38 38 37 37 36 36 36 35 35 35 35 35 35 35 35 35 36 35 36 36 36 36 37 37 37 37 35 33 32 31 32 32 32 30 30 30 30 31 32 33 34 34 35 34 32 31 30 30 29 29 29 28 28 27 26 25 26 27 27
34 35 36 38 39 40 41 41 43 45 47 48 47 46 44 43 42 42 41 41 41 41 40 39 38 37 37 36 36 35 35 35 34 34 34 35 35 36 36 36 36 36 36 36 36 36 36 36 36 36 36 36 34 32 32 32 33 33 33 32 32 32 32 33 33 33 34 34 34 33 32 30 30 30 29 28 27 27 27 28 28 27 27 27 27
32 33 35 38 40 40 38 37 38 40 41 42 42 42 41 41 40 40 40 40 40 39 39 38 37 36 36 35 35 35 35 34 34 35 36 36 37 37 38 38 38 38 38 37 37 37 37 36 36 35 35 34 33 32 32 33 34 34 34 33 34 34 34 34 33 34 34 33 32 31 31 29 29 30 29 27 27 27 27 28 28 28 28 28 28
33 34 34 36 38 38 37 35 34 35 36 37 38 38 38 38 38 38 39 40 40 39 38 37 37 36 36 35 35 35 34 34 35 36 37 39 39 40 40 39 39 39 39 39 38 38 37 36 35 35 34 33 32 32 32 33 34 34 34 34 34 34 34 34 34 34 33 31 30 30 30 29 29 29 29 28 28 28 28 28 28 29 29 29 29
37 37 37 36 37 37 37 36 35 35 34 34 34 35 36 37 38 38 39 40 39 39 38 37 37 36 36 36 35 35 35 36 37 38 39 40 40 40 40 39 39 39 38 38 38 37 36 36 35 34 33 33 32 32 32 33 34 34 34 35 34 34 34 34 33 33 32 30 29 29 29 28 28 29 29 29 29 29 28 29 30 30 31 31 30
42 41 41 40 39 39 38 37 37 37 35 33 33 34 35 37 39 39 40 40 39 39 39 38 38 37 37 37 36 37 37 38 39 39 40 40 40 40 39 39 38 37 37 37 37 36 35 35 34 33 32 32 32 32 32 33 34 34 34 34 34 34 33 33 32 31 31 29 28 28 28 29 29 29 29 29 29 29 29 30 31 31 32 32 32
47 46 46 44 43 42 41 40 38 38 37 35 33 34 36 37 39 40 40 40 40 40 40 39 39 39 38 38 38 38 39 38 39 39 39 39 39 39 39 38 37 36 36 35 35 34 33 33 32 32 31 32 32 32 33 34 34 34 34 34 33 33 32 32 32 31 30 29 28 28 29 29 30 30 30 29 29 30 30 31 31 31 32 32 32
51 50 50 49 48 47 46 44 41 39 38 37 35 35 35 37 39 41 42 42 42 41 41 41 40 40 39 39 39 39 37 37 37 38 39 39 39 39 38 38 37 36 35 35 34 33 33 32 32 32 32 33 34 34 35 35 35 34 34 33 33 32 32 32 31 30 29 29 29 29 30 31 31 31 30 30 31 31 32 32 31 32 32 33 32
52 53 52 52 52 52 51 49 45 42 41 40 39 37 36 37 40 42 43 43 43 43 43 42 42 40 40 40 39 38 35 35 36 37 38 38 38 38 37 37 37 36 36 35 35 35 35 35 35 35 35 36 36 36 36 35 34 33 33 33 33 32 32 31 31 29 29 29 29 30 31 32 32 32 32 32 33 33 33 33 32 33 34 34 34
51 51 51 52 52 51 52 51 50 47 45 43 42 40 38 37 40 43 45 44 44 44 45 44 43 41 41 41 40 38 36 35 36 37 37 37 37 37 37 36 36 36 36 36 36 37 37 37 37 38 37 37 36 36 35 34 34 33 33 32 32 31 31 31 30 30 30 30 30 31 32 33 34 34 35 35 35 34 34 33 32 34 35 35 35
53 50 48 48 48 49 50 51 52 52 49 47 45 42 39 38 40 44 46 45 45 46 46 46 45 43 43 42 41 39 38 37 37 37 37 37 37 37 37 37 36 36 36 36 37 37 38 38 38 38 37 36 35 35 34 34 33 33 32 31 30 31 32 31 31 31 31 32 32 32 33 34 35 36 37 37 36 35 34 34 33 35 36 36 37
58 55 50 47 48 49 49 49 50 52 51 50 48 45 41 39 41 44 46 47 47 48 48 47 46 45 45 43 42 41 40 40 39 38 38 38 39 38 37 37 37 37 37 37 37 37 38 38 38 37 36 36 35 34 33 33 32 32 31 31 31 31 32 32 31 31 32 32 32 33 35 36 37 37 37 36 35 35 35 35 35 36 37 37 38
62 60 56 53 52 52 51 50 49 49 50 49 47 46 44 41 42 45 47 48 49 50 50 49 48 47 46 44 43 42 42 41 40 39 39 39 39 38 37 37 37 36 36 36 36 37 37 37 37 37 36 35 34 33 33 32 32 32 32 31 32 32 32 32 31 32 32 33 34 35 36 37 37 36 36 36 35 36 36 36 36 37 38 38 39
64 64 62 61 59 56 54 53 50 49 49 48 45 45 44 43 44 46 49 50 51 52 52 51 50 49 47 45 43 43 43 42 41 40 39 39 38 37 36 36 36 36 36 36 36 36 37 37 36 36 35 35 34 34 33 32 32 32 32 32 32 32 32 32 32 33 33 34 35 35 36 36 36 36 36 35 35 36 36 36 37 37 38 39 40
68 68 67 66 64 61 58 56 54 51 51 49 45 43 43 44 45 47 50 51 52 53 53 52 51 50 48 46 45 44 43 42 40 39 38 37 36 36 36 35 36 36 36 37 37 37 37 36 36 35 35 35 34 34 34 33 33 33 32 32 32 32 32 33 33 34 35 35 35 36 36 36 36 36 36 35 35 36 36 37 37 37 39 40 41
68 69 68 67 66 64 61 59 57 54 53 52 49 45 44 44 45 48 50 52 53 54 54 53 52 51 49 47 46 45 43 42 41 39 39 38 37 37 37 37 37 37 37 37 37 37 37 36 35 35 34 34 34 33 33 33 33 33 33 33 34 34 35 36 36 36 36 36 37 37 37 37 36 36 36 36 36 37 37 37 37 38 39 40 41
56 61 63 64 64 64 63 61 59 57 55 54 53 50 47 46 47 48 50 53 54 55 55 55 54 53 51 50 49 48 47 46 45 43 41 40 39 39 38 38 37 37 37 37 37 36 36 35 34 34 33 34 33 33 33 33 34 35 36 36 37 37 37 37 37 37 37 38 38 38 38 37 37 37 37 37 38 38 38 38 39 39 40 41 41
43 49 53 57 59 61 62 60 59 57 56 55 53 52 51 50 49 49 50 52 54 56 56 57 56 55 55 54 53 52 50 47 44 42 40 40 39 39 39 38 38 37 36 36 35 35 34 34 34 34 33 33 33 33 34 35 36 37 37 37 37 37 37 38 38 39 39 39 39 38 38 38 38 38 38 39 39 39 40 40 41 41 42 42 43
38 41 45 50 53 56 59 60 59 57 55 53 51 49 50 50 50 50 51 52 54 56 57 57 57 56 55 54 53 50 46 43 41 41 40 40 40 39 39 38 37 36 36 36 36 36 35 35 35 35 35 35 35 36 36 36 36 37 37 37 37 38 38 39 39 40 40 39 39 39 39 39 39 40 40 40 40 41 41 42 43 43 44 44 44
36 39 42 46 49 52 55 58 58 57 55 52 49 46 46 48 49 50 51 52 54 56 57 57 57 56 55 54 51 48 45 43 42 42 41 40 39 39 39 38 38 37 37 38 37 37 36 36 36 37 38 38 38 38 37 37 37 38 38 38 38 38 39 40 40 40 40 40 40 40 40 40 40 40 41 41 41 42 43 43 44 45 45 45 45
36 38 41 45 48 50 53 55 57 56 54 53 51 47 45 45 47 50 52 53 55 56 57 58 57 56 55 54 51 49 47 45 43 42 42 42 41 41 40 39 38 38 37 37 37 37 37 37 38 38 38 37 37 38 38 39 39 39 39 38 38 39 39 40 40 40 40 40 40 41 41 41 41 41 41 41 42 42 43 44 45 45 45 45 46
36 38 41 44 47 49 51 52 54 54 53 53 52 50 46 45 47 50 53 53 54 55 56 56 56 56 54 53 52 50 47 44 43 44 44 44 42 40 38 37 37 38 38 38 38 38 38 38 37 37 37 37 38 38 39 39 38 38 38 38 39 39 39 39 40 40 40 41 41 41 41 41 41 41 41 42 42 43 43 44 44 45 45 45 46
37 38 41 44 46 48 49 49 49 49 50 51 51 51 49 46 47 50 54 54 54 53 53 54 55 55 55 54 53 50 47 45 45 44 43 42 40 38 36 36 36 36 37 38 38 38 38 37 38 38 38 38 37 37 37 37 37 38 38 38 38 39 39 40 40 40 40 40 40 40 41 41 41 41 42 42 43 43 44 44 44 45 45 45 46
38 38 40 43 46 47 47 46 45 45 45 46 48 50 49 48 47 51 55 56 56 56 56 56 55 55 55 55 53 51 49 48 46 43 41 39 37 35 34 34 34 34 34 35 36 37 38 38 38 38 37 37 36 37 37 37 37 37 37 37 38 39 39 39 40 39 39 39 40 40 40 41 41 42 42 42 43 43 43 44 44 45 45 46 47
37 38 40 42 43 43 43 41 41 41 40 40 42 44 45 46 48 51 55 57 57 56 56 55 55 55 54 54 53 51 49 46 43 40 38 35 33 32 33 34 35 35 35 36 37 38 39 38 37 37 36 36 37 36 36 36 37 37 38 38 38 39 39 39 39 39 39 39 39 40 40 41 41 42 42 43 43 43 44 44 45 45 46 47 48
37 37 38 39 41 41 41 40 39 39 37 35 35 38 42 46 49 53 56 56 56 54 53 52 53 54 54 53 53 49 46 44 42 38 34 32 32 33 35 36 36 37 38 39 40 40 39 37 37 37 36 37 37 37 37 37 38 38 38 39 39 39 38 38 38 39 39 39 40 40 41 42 42 43 43 44 44 44 45 46 46 47 48 49 49
37 37 37 38 39 40 39 37 36 36 36 34 35 39 45 49 52 54 54 54 54 54 53 52 52 53 52 51 50 48 46 44 40 35 33 34 36 38 38 39 39 39 40 40 39 38 37 37 37 37 37 38 38 38 38 38 38 38 38 38 38 38 38 38 39 39 40 40 41 41 42 43 43 44 44 45 45 46 46 47 47 48 49 50 51
37 37 37 37 38 38 37 35 34 34 34 35 36 41 46 50 50 50 50 51 52 53 52 51 51 53 52 49 48 47 44 40 36 35 37 39 41 41 40 39 39 39 39 38 38 38 38 38 39 39 39 38 38 38 37 37 37 38 38 38 38 39 39 39 40 40 41 41 42 42 43 43 44 44 45 45 45 46 46 47 48 50 51 52 53
36 36 36 35 36 35 34 34 33 32 34 35 38 42 45 47 47 47 48 50 52 52 52 52 52 52 51 49 48 45 41 38 38 40 41 41 41 40 39 39 39 39 38 38 39 39 39 40 40 40 39 39 38 38 37 37 37 38 39 39 40 40 40 40 41 42 42 43 43 43 43 43 43 44 44 45 46 47 48 50 52 53 55 56 57
33 33 33 33 33 33 33 32 32 33 34 36 39 42 44 45 47 47 48 49 50 50 50 49 48 48 48 46 44 41 40 39 40 39 38 37 37 38 39 41 41 40 39 39 39 40 41 42 42 42 41 40 39 38 38 38 39 40 40 41 41 41 41 42 42 43 43 44 44 44 45 45 45 46 47 48 49 51 52 54 55 56 57 58 60
31 30 30 30 30 31 32 32 33 34 35 37 39 41 43 44 44 44 43 42 42 42 42 41 40 41 40 40 39 38 38 38 37 36 36 37 39 40 42 42 42 41 41 41 41 42 43 43 43 43 42 42 41 40 40 40 41 41 42 42 42 42 42 43 43 43 44 44 45 45 46 47 47 48 49 50 51 52 53 54 55 57 58 59 60
29 29 28 27 27 27 28 30 32 33 35 36 37 38 38 38 37 36 34 34 34 35 36 37 37 38 39 39 39 38 37 37 38 39 40 41 41 41 42 42 42 42 42 42 42 43 43 44 44 45 44 44 43 43 43 42 42 42 42 42 42 42 43 43 44 44 44 44 45 45 46 46 47 48 49 50 50 51 53 54 56 58 59 60 62
28 28 28 27 26 26 26 27 29 30 32 33 34 34 34 33 33 32 31 31 32 33 35 36 38 39 40 40 39 38 38 38 40 41 42 43 43 42 43 43 43 42 41 41 41 42 43 44 45 46 46 46 46 46 45 44 43 42 42 42 42 43 44 44 44 45 45 45 45 46 46 47 48 49 50 51 52 53 54 56 57 59 60 61 63
28 28 28 28 28 27 27 27 27 28 29 30 31 32 33 33 32 32 32 32 32 32 33 35 36 38 37 36 35 36 36 38 39 40 41 42 43 43 42 41 41 41 41 41 40 41 42 44 46 47 48 49 48 47 46 44 43 42 42 42 43 44 44 45 45 45 46 46 47 47 48 48 49 50 51 52 53 55 56 57 59 60 62 63 65
25 26 27 28 29 29 29 29 28 29 29 28 29 29 29 30 30 30 30 30 30 30 30 30 30 30 30 29 30 31 33 34 36 37 39 41 43 44 44 43 43 43 42 42 42 43 44 45 46 47 48 48 48 47 45 43 43 42 43 44 44 45 45 45 46 46 47 48 48 48 49 50 50 51 53 54 55 56 58 59 60 62 63 65 66
23 23 24 25 26 27 28 28 29 29 29 30 30 29 29 28 28 28 27 27 28 28 29 30 30 29 29 30 32 33 34 35 36 38 39 41 43 45 45 45 46 46 45 45 46 47 47 46 46 45 45 45 45 44 44 43 43 44 44 45 45 45 45 45 46 47 48 48 49 49 49 50 51 52 53 55 56 57 58 59 61 61 63 64 65
23 23 24 24 25 25 26 27 27 28 28 29 29 30 30 30 30 29 29 29 29 29 30 30 31 31 32 34 35 36 37 37 37 37 39 40 41 42 44 45 46 47 47 48 48 47 46 45 45 44 43 43 43 43 43 43 44 44 44 45 45 45 45 45 46 47 47 48 48 49 49 50 51 52 54 55 56 57 58 58 59 59 60 61 62
23 24 24 25 25 26 27 27 28 28 29 29 29 30 30 31 31 31 32 32 32 33 33 34 34 35 35 36 37 38 39 40 40 41 42 43 44 45 45 46 46 46 45 45 45 45 45 45 44 43 43 42 42 42 42 42 43 43 44 44 44 44 44 45 45 46 46 47 47 47 48 49 50 51 52 54 54 55 56 56 56 57 57 58 59
25 25 25 25 26 27 27 28 29 30 30 30 31 31 31 32 32 33 33 33 34 35 36 37 38 38 39 40 41 42 43 43 44 45 45 45 45 45 44 44 43 43 43 43 43 44 44 44 43 42 41 40 40 40 41 41 42 42 43 43 43 43 44 44 44 44 44 45 46 46 47 47 48 49 50 50 51 52 52 52 52 53 54 55 56
27 27 27 27 27 28 28 29 30 30 31 31 32 32 32 33 33 34 34 35 35 36 36 37 38 39 39 40 41 41 42 42 43 43 43 43 43 43 42 42 42 42 42 42 42 42 42 41 40 40 40 39 39 39 40 40 41 41 41 41 42 42 42 42 41 42 42 43 44 44 44 45 45 46 46 47 47 48 48 49 49 49 50 52 53
28 28 29 29 29 29 30 30 30 31 31 32 32 33 33 33 34 34 34 35 35 36 36 37 37 38 38 39 39 40 40 40 41 41 41 41 41 41 41 41 40 40 40 40 39 39 39 39 38 38 38 38 38 39 39 39 39 40 40 40 40 40 40 39 39 40 40 41 41 41 41 42 43 43 43 43 44 45 45 45 45 46 47 48 49
26 26 27 28 29 29 30 30 31 31 32 32 33 33 34 34 35 35 35 35 36 36 36 36 37 37 37 38 38 39 39 39 39 39 39 39 39 39 38 38 38 38 37 37 37 37 37 36 36 36 36 37 37 38 38 38 38 38 38 38 38 38 37 37 37 37 37 38 38 38 39 40 40 41 41 41 41 42 42 42 42 43 45 46 46
23 24 25 25 26 27 28 28 29 29 30 31 31 32 33 33 34 35 35 36 36 36 37 37 37 37 37 38 38 38 38 38 38 38 38 38 37 37 37 36 36 36 35 35 35 35 35 35 35 35 35 36 36 36 37 37 37 36 36 35 35 34 34 34 34 34 35 36 36 37 37 38 38 38 38 38 38 39 39 39 40 42 43 43 43
22 23 23 24 25 25 26 27 27 28 28 28 29 30 30 31 32 32 33 34 34 35 35 35 36 36 36 37 37 37 37 37 37 37 37 36 36 36 35 35 35 34 34 34 34 34 34 34 34 35 35 35 35 34 34 34 33 33 32 31 30 30 30 30 31 32 33 34 34 34 34 35 35 35 35 36 36 37 37 38 39 41 41 42 42
21 21 22 23 24 25 25 26 26 27 27 27 28 28 29 29 30 30 31 31 32 32 33 33 33 34 34 34 34 34 35 35 34 34 34 34 33 33 33 33 33 33 33 33 33 33 33 34 34 33 33 33 32 31 31 30 29 28 27 27 27 27 27 28 28 29 30 31 31 31 32 32 33 33 33 34 34 35 36 36 38 39 40 40 41
Wind_Direction
258 258 257 256 256 256 256 257 258 257 256 256 257 258 259 260 261 261 261 260 260 258 257 256 257 258 259 259 259 260 260 260 260 260 261 262 264 265 265 266 267 268 268 268 268 268 268 268 268 267 265 264 264 263 264 265 267 268 267 266 264 263 266 271 275 279 285 291 296 301 304 305 307 308 306 306 308 308 309 310 310 311 313 314 315
260 260 257 255 254 255 256 257 257 254 252 251 253 255 257 258 258 258 259 259 257 255 255 257 259 260 261 261 260 260 261 261 261 262 262 263 264 264 265 265 266 266 267 267 267 266 266 266 266 264 261 261 261 262 264 266 267 266 264 262 259 259 263 269 274 278 283 289 297 302 306 306 306 305 305 306 307 308 308 309 311 313 313 313 314
262 262 260 255 253 254 256 254 251 249 248 249 251 253 256 258 258 258 260 259 256 255 257 259 261 262 262 262 261 261 261 261 262 262 262 262 263 263 264 264 265 265 266 266 265 265 265 265 264 261 258 259 261 263 265 266 265 263 259 255 255 257 262 268 273 278 281 288 297 304 306 305 303 303 303 304 304 305 306 308 311 312 311 313 315
264 264 262 257 254 254 254 250 247 246 246 249 252 255 258 261 262 261 260 259 257 257 259 261 262 263 263 262 261 260 260 260 260 260 261 261 262 263 264 264 264 264 264 264 264 264 264 264 262 259 258 260 262 263 265 265 262 257 252 250 253 257 262 269 275 279 282 288 297 304 304 301 301 301 301 301 301 303 306 308 310 309 311 315 318
268 266 265 260 255 253 253 249 246 245 247 250 254 258 262 265 266 263 260 259 258 258 260 262 264 264 264 262 259 258 257 257 257 258 259 260 262 263 263 263 264 264 264 263 263 263 264 264 263 261 260 261 262 264 266 263 256 250 248 249 253 258 265 272 277 281 285 290 296 301 300 297 297 298 297 298 300 303 305 306 308 309 312 316 318
271 268 267 263 258 254 253 251 249 249 251 253 257 261 265 267 266 263 260 258 258 259 261 263 264 263 261 258 256 255 255 256 257 258 260 261 262 263 263 264 264 264 264 264 264 264 264 264 263 262 262 263 264 265 264 258 252 248 247 249 255 261 268 274 279 284 287 291 294 296 295 294 294 294 295 298 300 302 303 304 306 309 310 311 313
271 269 266 264 261 258 257 257 256 257 257 258 260 263 265 265 263 261 259 257 258 259 260 261 260 259 257 256 255 256 257 258 260 261 262 263 264 264 265 265 264 264 264 264 264 264 264 264 264 264 265 266 265 264 260 255 251 249 248 252 258 265 271 277 281 285 287 290 292 291 290 290 291 292 295 298 300 301 302 301 303 305 305 306 308
270 266 263 262 261 261 262 263 263 263 262 262 262 263 262 262 261 260 258 257 257 257 257 256 255 254 254 255 256 257 259 260 261 263 264 264 265 265 265 265 265 264 264 264 264 264 264 264 265 265 266 265 264 261 257 253 251 249 251 257 263 269 274 279 282 283 286 288 288 286 285 287 289 291 295 297 297 299 300 300 299 301 302 303 305
264 261 259 260 260 261 261 262 262 262 261 260 260 261 262 262 261 259 256 255 254 254 253 252 252 253 254 255 257 258 259 261 262 263 264 265 266 266 266 266 265 265 265 265 264 265 265 265 265 265 264 263 261 258 255 252 250 251 255 261 266 272 275 278 280 282 284 284 284 283 283 285 288 291 294 295 295 296 297 296 297 298 300 301 302
256 256 257 258 259 260 258 257 257 257 257 258 258 260 260 260 259 257 254 252 251 251 251 251 252 253 254 255 256 257 259 260 262 263 264 265 266 266 266 267 266 266 265 265 265 265 265 265 264 263 262 260 258 256 253 251 252 254 259 264 268 272 274 276 278 280 281 281 281 280 281 284 289 292 293 293 293 293 293 294 295 296 296 298 299
253 254 256 257 258 258 257 255 255 254 255 257 257 257 257 257 257 255 252 250 250 250 250 251 252 253 253 253 254 256 259 261 262 263 264 265 267 267 268 267 266 265 265 264 264 264 263 263 262 260 259 258 256 255 253 253 255 259 263 266 268 271 273 275 277 278 278 278 278 278 280 286 291 292 290 290 290 291 291 292 293 295 297 298 300
253 253 254 256 257 259 259 257 255 253 253 255 256 255 255 255 254 253 251 249 249 249 250 251 251 251 251 252 255 258 261 262 263 264 265 266 267 268 268 266 265 263 262 261 261 261 260 260 259 258 258 257 256 256 256 257 259 261 264 266 269 271 273 274 275 275 275 275 276 278 282 287 290 289 287 287 288 289 289 290 292 296 298 299 302
253 253 253 255 257 259 260 259 256 254 253 255 256 255 253 253 253 252 250 248 248 249 250 250 249 249 251 255 258 260 261 263 264 265 266 267 268 267 266 264 262 260 259 259 258 258 258 258 258 258 258 258 257 257 258 259 261 263 265 267 269 271 272 271 271 271 272 274 275 278 282 286 288 287 286 285 286 287 288 290 292 295 297 300 303
253 253 254 256 257 260 261 259 256 255 254 254 255 255 253 252 251 251 249 247 246 248 249 249 248 250 253 257 258 259 260 262 264 265 266 267 267 267 265 263 262 260 258 258 257 257 257 257 258 258 257 257 258 259 260 262 263 265 266 267 268 268 268 267 268 269 271 273 274 277 281 285 286 286 286 285 286 287 289 291 293 295 297 300 304
255 252 252 255 258 260 262 260 257 256 255 255 256 255 253 251 250 250 249 246 246 248 248 248 248 251 255 256 257 258 259 261 262 263 264 265 265 265 264 262 261 259 258 257 256 256 256 256 257 257 258 259 260 261 262 263 264 265 265 265 265 264 265 265 267 268 270 271 274 278 281 284 284 285 286 286 286 287 289 292 294 297 299 303 306
259 255 253 255 259 262 263 262 259 257 256 257 257 256 254 251 250 250 248 246 246 248 248 248 249 253 256 257 258 258 259 259 260 261 262 262 263 263 262 260 259 257 256 256 255 255 256 256 257 258 259 261 261 262 262 263 263 263 263 263 262 262 263 265 267 268 271 273 276 279 282 283 284 285 286 286 286 287 289 292 295 297 300 304 307
263 260 258 259 262 266 266 265 263 260 258 258 258 259 256 251 248 249 248 246 246 248 249 249 251 254 256 257 259 260 258 257 257 258 259 260 260 261 260 259 258 256 256 255 255 256 256 257 258 259 260 260 260 260 260 260 261 261 260 260 260 260 262 265 267 270 273 276 279 281 283 283 284 285 285 285 285 287 289 292 295 297 300 304 306
262 263 262 262 264 266 267 267 265 263 261 259 258 259 258 252 248 248 247 247 247 248 249 249 251 254 255 257 259 259 258 256 255 256 256 257 258 258 258 258 258 256 256 255 255 256 257 258 258 258 258 258 257 258 258 258 258 258 258 257 257 259 263 267 270 273 276 279 281 282 282 282 282 283 283 284 285 287 290 293 296 298 301 303 305
258 260 260 260 261 262 263 264 264 263 261 259 257 258 257 252 247 246 246 246 247 248 249 250 251 253 255 257 258 258 257 255 254 254 254 255 255 255 255 256 256 256 256 256 256 256 257 257 256 256 256 256 256 256 256 256 256 256 256 256 258 260 265 269 272 274 276 278 280 280 280 280 280 280 281 283 285 287 290 293 295 297 300 302 303
252 253 252 253 255 257 258 260 261 261 258 256 255 254 253 249 245 243 244 245 247 248 249 250 251 253 254 256 256 256 255 253 252 251 252 252 252 253 253 253 255 256 256 256 256 256 256 256 256 256 256 257 257 257 256 255 255 255 256 258 260 263 267 271 273 275 276 277 278 278 278 278 278 279 280 282 284 286 288 291 293 295 297 300 301
248 248 249 249 248 250 251 254 257 257 255 253 252 251 250 247 242 241 243 245 247 248 249 249 251 253 254 254 254 253 252 251 249 248 249 251 251 252 252 252 253 254 255 256 257 256 256 255 255 255 255 256 256 255 255 255 256 258 260 262 265 268 271 274 275 277 277 276 276 275 275 276 277 278 279 281 282 284 286 289 291 293 295 297 299
252 252 252 250 248 246 245 247 250 252 251 250 250 250 250 248 243 241 242 244 246 248 249 249 250 252 252 252 251 250 249 249 248 249 250 251 251 251 251 251 251 252 253 254 255 255 255 254 253 253 253 253 253 254 256 258 260 262 264 267 269 271 273 275 276 276 276 275 275 275 275 276 277 278 279 281 282 284 286 289 290 291 293 294 296
259 258 257 255 252 248 245 244 245 246 246 247 247 249 250 250 247 243 242 244 246 247 248 248 249 251 252 251 251 251 252 253 252 252 251 249 248 248 249 250 251 251 252 253 253 252 252 251 250 250 251 253 254 256 258 261 264 266 267 269 271 272 273 274 274 275 275 275 275 275 276 277 278 279 281 283 285 287 289 291 291 292 292 293 294
266 264 263 261 257 253 250 247 245 244 243 242 243 245 247 248 248 245 243 244 246 247 248 249 250 251 252 253 254 254 253 253 251 249 247 245 245 246 248 249 249 249 249 249 249 248 249 250 251 251 252 254 256 257 260 263 266 268 270 271 272 273 274 274 274 275 275 275 276 277 277 279 281 283 285 287 289 290 292 293 294 294 294 295 295
270 268 266 264 261 258 254 250 248 247 244 241 240 241 242 244 244 244 243 243 245 247 248 248 249 250 251 252 252 250 248 245 244 243 242 242 243 244 245 245 245 245 246 247 249 251 253 253 253 254 254 255 258 260 263 265 267 268 270 271 272 273 273 274 275 275 276 276 278 279 281 282 284 286 288 290 291 292 293 294 295 295 295 296 296
272 270 267 265 263 260 256 252 250 250 247 244 241 239 240 241 242 244 245 245 246 246 247 247 248 248 249 250 248 245 242 240 240 239 240 241 242 243 243 244 245 246 248 251 253 255 254 253 253 256 258 260 262 263 264 264 265 266 268 269 271 272 273 274 274 275 276 278 280 282 284 286 287 289 290 291 292 293 294 295 295 296 296 297 297
270 270 268 266 263 261 258 253 251 250 250 248 245 242 241 242 242 243 246 247 247 247 246 246 246 247 248 247 244 241 239 238 237 237 238 240 241 242 244 246 248 248 249 250 251 253 253 253 255 257 258 260 261 261 263 264 266 267 269 270 271 272 273 274 275 277 279 280 282 284 286 287 289 290 290 291 292 293 294 295 295 296 296 297 298
267 267 267 265 263 261 259 255 252 251 250 249 248 246 244 242 241 241 242 243 244 245 245 245 245 246 245 243 240 238 238 237 237 238 240 242 242 241 242 244 246 247 248 249 251 252 253 253 254 255 256 258 260 261 263 266 267 268 270 270 271 273 274 276 277 279 281 282 284 285 287 288 289 290 291 292 293 293 294 294 294 295 296 296 297
265 264 264 263 262 260 259 256 253 251 250 249 248 246 245 243 240 239 238 238 239 240 241 242 243 243 241 238 235 236 237 238 237 237 239 240 239 239 240 243 245 246 246 247 248 249 249 250 252 254 256 258 260 261 263 265 266 267 268 270 272 273 275 277 278 280 282 283 285 286 287 288 289 290 291 292 292 292 293 293 294 295 297 298 299
263 262 262 261 259 257 256 254 252 250 248 246 244 243 243 241 239 237 237 237 237 237 238 239 239 239 236 235 235 238 241 240 235 231 232 233 233 235 239 242 244 245 244 244 244 246 248 251 253 255 256 257 259 261 262 264 266 267 269 271 272 274 276 277 279 280 282 283 284 285 287 288 289 290 290 291 291 292 293 294 296 297 299 300 300
263 262 261 261 261 260 260 260 260 257 254 249 242 238 237 237 236 235 235 235 235 235 236 237 236 234 233 235 240 243 242 239 234 230 229 230 231 234 238 240 242 243 244 245 247 249 251 252 253 255 256 258 260 261 263 264 266 268 270 272 273 275 276 278 279 280 281 283 284 285 286 287 288 288 289 290 292 293 294 296 297 298 299 300 299
265 263 262 262 263 265 266 267 267 266 264 258 247 238 234 233 233 234 234 235 234 233 232 231 231 233 235 241 245 244 238 233 231 229 227 228 231 234 236 238 241 244 246 248 250 251 252 253 253 255 256 258 259 261 263 265 268 270 272 274 275 277 278 279 280 281 282 283 284 285 285 286 288 289 290 292 294 295 296 297 298 299 299 298 298
267 265 264 264 264 266 267 269 268 267 265 260 250 240 234 231 230 230 231 232 232 231 229 228 232 240 245 245 242 236 230 228 228 226 225 227 231 233 236 239 242 244 246 248 250 250 251 252 253 255 256 258 261 264 266 269 271 273 275 276 277 279 280 281 282 283 283 284 285 286 287 289 290 292 293 294 296 297 297 298 298 298 297 297 297
266 265 263 263 263 264 265 266 266 264 261 257 249 242 238 235 234 233 233 233 232 232 233 235 242 250 251 243 233 228 225 224 224 224 226 229 232 236 239 242 243 244 246 247 248 249 251 252 254 256 259 262 265 268 271 273 275 277 278 279 280 281 283 284 284 285 286 287 288 289 291 292 293 294 295 295 296 297 297 297 297 297 297 297 298
266 264 262 261 260 260 260 260 259 256 254 252 249 245 242 241 241 241 241 241 241 241 243 246 249 250 244 234 226 223 221 221 224 227 231 235 239 242 243 242 242 242 244 246 248 250 251 253 256 259 263 266 269 271 273 275 277 278 279 280 282 283 285 286 287 288 288 289 290 291 292 293 293 293 294 295 296 296 296 296 296 297 297 298 299
265 263 261 259 258 257 257 255 253 251 249 248 247 247 247 246 247 248 249 250 249 248 247 247 244 239 232 225 221 220 220 224 229 232 235 239 242 243 243 243 243 243 242 244 247 250 253 256 259 262 265 267 269 271 274 276 278 279 280 282 283 285 286 288 288 289 289 289 290 290 291 291 291 292 293 293 294 294 295 295 296 297 298 299 299
267 264 261 258 255 253 252 250 249 247 246 245 246 247 248 249 251 251 252 252 250 248 246 243 238 234 231 227 224 223 224 227 229 231 232 234 237 239 240 242 244 244 245 246 249 252 255 258 260 262 264 266 268 271 273 275 277 279 281 282 283 284 286 287 288 289 289 289 289 289 289 289 290 290 291 291 292 293 294 296 297 298 299 299 299
268 267 265 261 257 253 250 248 246 245 245 245 245 246 246 247 248 249 249 249 248 248 247 246 243 240 237 234 231 229 228 228 229 231 232 234 236 239 241 243 246 248 249 250 251 253 256 258 259 261 263 265 267 269 272 274 277 279 280 282 283 284 286 287 288 288 288 288 289 289 289 289 289 290 290 291 293 294 296 297 298 298 298 298 298
270 269 268 266 263 259 255 252 250 249 248 248 249 249 248 248 247 247 247 247 248 248 247 246 244 241 238 235 233 232 232 232 234 235 236 236 238 240 242 245 247 249 250 250 251 253 255 257 259 261 263 265 267 270 272 275 277 278 279 281 282 284 285 286 286 287 287 288 288 289 289 289 290 291 292 293 294 295 296 297 297 297 297 297 296
279 278 276 274 272 269 266 263 260 257 256 254 254 254 254 253 252 251 249 248 248 246 244 242 240 238 237 237 238 239 240 241 242 242 242 242 241 242 245 247 248 248 249 250 251 253 256 258 260 263 264 266 268 270 272 274 276 277 279 281 282 283 283 284 285 285 286 287 287 288 289 290 291 291 293 294 294 295 296 296 296 296 296 295 295
285 285 284 284 283 282 280 277 274 272 269 267 265 263 262 261 261 260 259 257 254 252 250 248 246 245 246 247 248 249 250 251 251 251 252 251 248 246 247 249 249 250 251 253 256 259 262 264 266 268 269 270 271 271 272 274 275 277 279 280 280 280 281 282 283 284 285 286 287 288 289 290 291 292 293 294 294 295 295 295 295 295 295 295 295
289 288 288 288 288 287 287 286 284 282 281 279 277 275 274 272 271 270 268 266 263 260 258 257 256 255 254 253 252 252 253 254 255 255 256 257 256 253 252 253 254 256 258 261 264 267 269 270 272 272 273 273 273 273 273 274 275 276 277 277 277 278 279 280 282 283 284 286 287 288 289 290 292 293 293 294 294 295 295 295 295 295 296 296 296
287 287 287 287 287 287 287 286 286 285 283 282 281 280 278 277 276 275 274 272 271 269 267 264 263 262 260 259 258 258 258 259 260 261 261 262 262 262 261 263 264 266 267 268 270 272 273 273 273 273 273 273 273 273 274 274 275 275 276 276 276 277 278 280 281 282 284 285 286 288 290 291 292 293 294 294 294 295 295 296 297 297 297 298 298
280 281 281 282 283 283 283 283 283 282 281 280 280 279 278 276 275 274 273 272 272 272 271 270 269 268 267 267 267 267 267 267 267 267 266 265 265 266 267 268 269 270 271 272 273 273 273 273 273 272 271 271 271 271 272 272 273 274 274 275 276 277 278 279 280 282 283 285 287 289 291 292 293 293 294 294 295 296 297 297 298 298 298 298 299
275 275 275 275 276 276 277 277 278 278 278 278 277 276 276 275 274 273 272 271 270 270 269 268 268 267 266 266 266 266 267 267 266 265 265 264 264 265 266 267 268 269 270 270 271 271 271 270 270 270 270 270 270 270 270 271 271 272 272 273 275 276 278 279 280 282 284 286 288 290 291 292 292 293 294 295 296 297 297 297 297 297 298 299 300
274 273 273 272 272 272 272 272 273 273 274 274 275 275 274 274 273 272 271 271 270 269 269 268 267 266 266 266 265 265 265 265 265 265 265 265 265 265 266 266 267 267 268 268 268 268 269 269 269 269 269 270 270 270 271 271 271 272 273 274 275 277 278 280 282 284 286 288 289 290 291 292 293 294 295 296 296 296 295 295 297 299 300 301 302
273 273 273 272 272 272 271 271 271 271 271 271 272 272 272 272 272 272 271 271 270 270 269 269 268 268 268 268 268 268 268 268 268 268 268 268 268 268 268 268 268 268 268 268 268 268 268 268 269 269 270 271 271 272 272 272 273 274 274 275 276 278 280 282 284 286 288 289 289 291 292 293 294 295 295 295 294 293 295 297 300 303 304 304 305
275 274 273 273 273 272 272 272 272 272 272 272 271 271 271 271 270 271 271 271 270 270 270 270 269 269 269 269 268 268 268 268 268 269 269 269 269 268 268 268 268 268 267 267 267 267 268 268 269 269 270 270 271 271 271 272 273 274 275 276 278 280 282 284 286 287 288 289 290 292 293 294 294 293 292 292 293 296 299 303 305 306 307 308 310
279 278 277 276 275 274 274 274 273 273 273 273 273 273 272 272 271 271 270 270 270 270 269 269 269 269 269 269 268 268 268 268 268 268 268 268 268 268 268 268 267 267 267 267 267 268 268 268 268 268 268 268 269 270 270 271 272 274 275 277 280 282 284 285 287 288 289 290 292 293 293 292 291 291 292 294 297 301 304 307 308 309 309 310 313
281 281 280 279 279 278 277 277 276 276 275 275 275 275 274 274 273 273 272 271 271 270 269 269 268 268 268 268 267 267 267 267 267 267 267 267 267 267 267 266 266 266 266 266 266 266 266 265 265 266 266 266 267 268 269 271 273 274 277 279 280 282 284 286 287 289 290 291 291 291 290 290 291 293 296 299 302 305 307 309 309 309 311 312 315
282 281 280 279 278 278 278 277 277 277 277 276 276 276 276 276 276 276 275 273 272 271 270 269 268 268 267 267 266 266 266 266 266 266 266 266 265 265 265 265 264 264 264 264 263 263 263 263 263 264 264 265 267 268 270 271 273 275 276 278 279 281 283 285 286 288 288 288 288 289 289 291 294 297 300 303 306 307 308 309 309 311 313 316 318
Height
3048 3048 3048 3048 3048 3048 3048 3048 3049 3049 3050 3050 3050 3051 3052 3053 3053 3053 3053 3053 3053 3053 3053 3053 3053 3053 3053 3052 3052 3052 3052 3052 3052 3052 3052 3052 3052 3053 3053 3053 3053 3053 3053 3053 3053 3053 3052 3051 3051 3051 3050 3049 3049 3050 3050 3050 3049 3049 3049 3049 3049 3049 3049 3048 3047 3048 3050 3050 3049 3048 3047 3045 3044 3043 3042 3041 3041 3040 3039 3037 3036 3034 3032 3030 3029
3042 3042 3042 3042 3042 3042 3043 3043 3044 3044 3044 3044 3045 3046 3047 3048 3048 3047 3047 3048 3048 3048 3048 3048 3048 3048 3048 3047 3047 3047 3047 3047 3047 3047 3047 3047 3048 3048 3048 3048 3048 3048 3048 3048 3048 3048 3047 3046 3046 3047 3046 3045 3045 3046 3046 3046 3045 3045 3046 3046 3046 3046 3046 3045 3044 3044 3045 3045 3045 3044 3042 3041 3040 3039 3037 3037 3036 3035 3034 3033 3031 3030 3028 3027 3025
3037 3037 3037 3037 3037 3037 3038 3038 3038 3038 3038 3039 3040 3041 3041 3042 3042 3041 3042 3042 3042 3042 3043 3043 3043 3043 3042 3042 3043 3043 3042 3043 3043 3043 3043 3043 3043 3043 3043 3043 3043 3043 3043 3043 3043 3043 3042 3042 3042 3042 3042 3041 3041 3042 3042 3042 3041 3041 3042 3042 3042 3043 3043 3042 3041 3041 3041 3041 3041 3040 3038 3037 3036 3035 3033 3032 3032 3031 3030 3029 3027 3026 3024 3023 3021
3031 3031 3032 3032 3032 3033 3033 3033 3033 3033 3033 3034 3034 3035 3035 3035 3035 3036 3036 3037 3037 3037 3037 3038 3038 3037 3037 3038 3038 3038 3038 3038 3038 3038 3038 3038 3038 3038 3038 3038 3038 3038 3038 3039 3039 3038 3038 3038 3038 3038 3037 3037 3037 3038 3038 3038 3038 3038 3038 3039 3039 3039 3039 3039 3038 3037 3037 3037 3037 3036 3034 3033 3032 3031 3029 3029 3028 3027 3026 3024 3023 3022 3021 3019 3017
3026 3026 3027 3027 3027 3028 3028 3028 3028 3027 3028 3028 3029 3029 3029 3029 3030 3030 3031 3031 3032 3032 3032 3032 3032 3032 3032 3033 3033 3033 3033 3033 3033 3033 3034 3034 3034 3034 3034 3034 3034 3034 3034 3034 3034 3034 3033 3033 3034 3033 3033 3033 3033 3034 3034 3033 3034 3034 3034 3035 3035 3035 3035 3035 3034 3034 3033 3032 3032 3031 3030 3029 3028 3027 3026 3025 3024 3023 3022 3021 3020 3018 3016 3015 3014
3022 3022 3022 3022 3022 3023 3023 3023 3023 3023 3023 3024 3024 3024 3024 3024 3024 3025 3025 3026 3026 3026 3026 3027 3027 3027 3027 3028 3028 3028 3028 3029 3029 3029 3029 3029 3029 3029 3029 3029 3030 3030 3030 3030 3030 3029 3029 3029 3029 3029 3028 3029 3029 3029 3029 3029 3029 3030 3031 3031 3031 3031 3031 3031 3030 3030 3029 3029 3028 3027 3025 3024 3024 3023 3022 3021 3020 3019 3018 3017 3016 3014 3012 3011 3010
3018 3017 3017 3017 3017 3017 3018 3018 3019 3019 3019 3019 3019 3019 3019 3019 3019 3019 3019 3019 3020 3020 3021 3021 3021 3022 3022 3023 3023 3024 3024 3024 3025 3025 3025 3025 3025 3025 3025 3025 3025 3025 3025 3025 3025 3025 3025 3025 3024 3024 3024 3024 3025 3025 3025 3025 3026 3026 3027 3027 3027 3027 3027 3027 3026 3026 3025 3024 3024 3023 3021 3020 3020 3019 3018 3017 3016 3014 3013 3012 3012 3011 3009 3008 3006
3013 3012 3011 3011 3011 3011 3012 3013 3013 3013 3013 3013 3013 3013 3013 3013 3013 3013 3013 3013 3014 3014 3015 3016 3016 3017 3018 3018 3019 3019 3020 3020 3020 3021 3021 3021 3021 3021 3021 3021 3020 3020 3020 3020 3020 3020 3020 3020 3020 3020 3020 3020 3021 3021 3021 3021 3022 3022 3023 3023 3023 3023 3023 3022 3022 3021 3020 3020 3019 3018 3017 3017 3015 3014 3014 3013 3012 3010 3009 3007 3007 3006 3005 3004 3002
3007 3006 3006 3005 3005 3006 3006 3006 3006 3006 3006 3006 3007 3007 3007 3008 3007 3007 3007 3008 3008 3009 3010 3010 3011 3012 3013 3014 3014 3015 3015 3016 3016 3016 3016 3016 3016 3016 3016 3016 3015 3015 3015 3015 3015 3015 3015 3015 3015 3016 3016 3016 3016 3017 3017 3018 3018 3018 3019 3019 3019 3019 3018 3018 3017 3016 3016 3015 3015 3014 3013 3013 3011 3010 3010 3009 3008 3006 3005 3004 3002 3001 3000 2999 2999
3001 3000 3000 3000 3000 3000 3000 3000 3000 3000 3000 3000 3001 3001 3001 3001 3001 3001 3002 3002 3003 3004 3005 3006 3007 3008 3008 3009 3009 3010 3010 3011 3011 3011 3011 3011 3011 3011 3011 3011 3010 3010 3010 3010 3010 3011 3011 3011 3011 3011 3011 3012 3012 3012 3013 3014 3014 3014 3014 3014 3014 3014 3014 3013 3012 3012 3011 3011 3010 3010 3009 3009 3007 3006 3005 3004 3004 3002 3001 3000 2999 2998 2997 2996 2995
2994 2994 2994 2994 2994 2994 2994 2994 2994 2994 2994 2994 2994 2995 2995 2995 2995 2996 2996 2997 2998 2999 3000 3001 3002 3003 3004 3004 3005 3005 3006 3006 3006 3006 3006 3006 3006 3006 3006 3006 3005 3005 3005 3006 3006 3006 3006 3006 3007 3007 3007 3007 3008 3008 3009 3009 3010 3010 3010 3010 3010 3009 3009 3008 3008 3007 3006 3006 3006 3005 3005 3004 3003 3002 3001 3000 3000 2999 2997 2996 2995 2994 2992 2991 2991
2987 2986 2987 2987 2986 2987 2987 2987 2987 2988 2988 2988 2989 2989 2989 2989 2990 2990 2991 2992 2993 2994 2995 2996 2997 2998 2998 2999 3000 3000 3001 3001 3001 3001 3001 3001 3001 3001 3001 3000 3000 3001 3001 3001 3001 3001 3002 3002 3002 3002 3003 3003 3004 3004 3005 3005 3005 3006 3005 3005 3004 3004 3004 3004 3003 3002 3002 3001 3001 3001 3000 3000 2999 2998 2997 2996 2996 2995 2994 2992 2991 2990 2988 2987 2986
2979 2978 2979 2979 2980 2980 2980 2980 2981 2982 2982 2983 2983 2983 2983 2984 2985 2986 2986 2987 2988 2989 2990 2991 2992 2992 2993 2994 2994 2995 2995 2995 2995 2996 2996 2996 2996 2995 2995 2995 2995 2996 2996 2996 2996 2997 2997 2997 2998 2998 2998 2999 2999 3000 3000 3000 3000 3000 3000 3000 2999 2999 2999 2999 2998 2997 2997 2997 2997 2996 2995 2995 2995 2994 2993 2992 2991 2990 2989 2988 2987 2985 2984 2982 2981
2972 2972 2972 2973 2973 2974 2974 2974 2974 2975 2976 2977 2977 2977 2978 2978 2979 2980 2981 2981 2982 2983 2985 2986 2986 2987 2988 2989 2989 2989 2990 2990 2990 2990 2990 2990 2990 2990 2990 2990 2990 2991 2991 2991 2992 2992 2993 2993 2993 2994 2994 2994 2995 2995 2995 2995 2995 2995 2995 2994 2994 2994 2994 2994 2993 2993 2993 2992 2992 2992 2991 2990 2990 2989 2989 2988 2987 2986 2984 2983 2982 2980 2979 2977 2976
2967 2967 2967 2967 2967 2967 2967 2968 2968 2969 2970 2970 2971 2971 2972 2973 2974 2974 2975 2976 2977 2978 2979 2980 2981 2982 2982 2983 2984 2984 2985 2985 2985 2985 2985 2985 2985 2985 2985 2985 2985 2985 2986 2986 2987 2987 2988 2988 2989 2989 2989 2989 2990 2990 2990 2990 2990 2990 2990 2989 2989 2989 2989 2988 2988 2988 2988 2987 2987 2987 2986 2985 2985 2985 2984 2983 2982 2981 2979 2978 2976 2975 2973 2972 2971
2962 2962 2963 2963 2962 2962 2962 2962 2962 2963 2963 2964 2964 2965 2966 2967 2968 2969 2970 2970 2971 2973 2974 2975 2976 2977 2977 2978 2978 2979 2979 2979 2979 2980 2980 2980 2980 2980 2980 2980 2980 2981 2981 2982 2982 2983 2983 2983 2984 2984 2984 2984 2985 2984 2984 2984 2985 2985 2985 2985 2985 2984 2984 2983 2983 2983 2983 2982 2982 2981 2981 2980 2980 2980 2979 2978 2977 2976 2974 2973 2972 2970 2968 2966 2965
2956 2957 2957 2957 2957 2957 2956 2956 2956 2957 2957 2958 2958 2959 2960 2961 2962 2963 2964 2965 2966 2967 2968 2969 2970 2971 2971 2972 2973 2974 2974 2974 2974 2974 2974 2975 2975 2975 2975 2975 2976 2976 2976 2977 2977 2977 2978 2978 2979 2979 2979 2979 2979 2979 2979 2979 2980 2980 2980 2980 2980 2980 2979 2978 2978 2978 2977 2977 2976 2975 2975 2975 2974 2974 2974 2973 2972 2971 2969 2968 2967 2965 2963 2961 2960
2949 2950 2950 2951 2951 2950 2949 2949 2950 2950 2950 2951 2952 2953 2954 2955 2956 2957 2958 2959 2960 2961 2962 2963 2964 2965 2966 2966 2967 2968 2968 2968 2968 2968 2968 2969 2969 2970 2970 2970 2970 2971 2971 2971 2971 2972 2972 2973 2973 2974 2974 2974 2974 2974 2974 2975 2975 2976 2976 2976 2976 2975 2974 2974 2974 2973 2972 2972 2971 2970 2970 2970 2970 2969 2969 2968 2967 2965 2964 2963 2961 2959 2957 2956 2954
2941 2943 2943 2943 2943 2943 2942 2942 2942 2943 2944 2945 2946 2947 2948 2949 2950 2951 2952 2953 2954 2955 2956 2957 2958 2959 2960 2960 2961 2962 2962 2962 2962 2962 2963 2963 2963 2964 2964 2964 2965 2965 2966 2966 2966 2967 2967 2967 2968 2968 2969 2969 2969 2969 2969 2970 2970 2971 2971 2972 2971 2970 2970 2970 2969 2968 2968 2967 2966 2966 2965 2965 2965 2965 2964 2963 2962 2960 2959 2958 2956 2954 2952 2951 2949
2931 2931 2932 2933 2934 2935 2935 2935 2935 2936 2937 2938 2939 2940 2941 2941 2942 2943 2945 2946 2947 2949 2950 2951 2952 2953 2953 2954 2955 2956 2956 2957 2957 2957 2957 2957 2958 2958 2959 2959 2960 2960 2960 2961 2961 2961 2962 2962 2963 2964 2964 2964 2965 2965 2965 2965 2966 2967 2967 2967 2967 2966 2966 2965 2965 2964 2963 2963 2962 2961 2961 2961 2960 2960 2959 2958 2957 2956 2954 2953 2951 2949 2947 2946 2944
2919 2920 2921 2923 2924 2925 2927 2927 2928 2929 2930 2931 2932 2933 2934 2934 2935 2936 2938 2939 2941 2942 2943 2944 2945 2946 2947 2948 2949 2950 2950 2950 2950 2951 2951 2952 2952 2953 2953 2954 2954 2955 2955 2956 2956 2957 2957 2957 2958 2958 2959 2959 2960 2960 2960 2961 2961 2962 2962 2962 2962 2961 2961 2961 2960 2960 2959 2958 2958 2957 2957 2956 2956 2955 2954 2954 2952 2951 2949 2948 2946 2944 2942 2940 2938
2910 2911 2912 2913 2914 2916 2917 2918 2919 2920 2921 2923 2924 2926 2927 2928 2928 2929 2931 2932 2933 2935 2936 2937 2938 2939 2940 2941 2942 2943 2944 2944 2945 2945 2946 2946 2947 2948 2948 2949 2949 2950 2950 2951 2951 2952 2952 2953 2953 2954 2954 2954 2955 2955 2956 2956 2957 2957 2957 2957 2957 2957 2956 2956 2955 2955 2954 2954 2953 2953 2952 2952 2951 2950 2949 2948 2947 2945 2944 2942 2940 2939 2937 2934 2932
2903 2903 2903 2904 2906 2907 2907 2908 2909 2910 2912 2914 2916 2918 2919 2920 2921 2922 2923 2924 2926 2927 2929 2930 2931 2932 2933 2934 2935 2936 2937 2938 2938 2939 2940 2941 2941 2942 2943 2943 2944 2944 2945 2946 2946 2947 2947 2948 2948 2949 2949 2950 2950 2951 2951 2952 2952 2952 2952 2952 2952 2951 2951 2950 2950 2949 2949 2949 2948 2948 2947 2947 2946 2945 2943 2942 2940 2939 2937 2935 2934 2932 2930 2929 2926
2896 2896 2896 2897 2898 2899 2899 2900 2901 2901 2903 2904 2906 2909 2911 2912 2913 2915 2916 2917 2918 2920 2921 2923 2924 2925 2926 2927 2928 2929 2930 2931 2932 2932 2933 2934 2935 2936 2937 2937 2938 2938 2939 2940 2941 2942 2943 2943 2944 2944 2945 2945 2946 2946 2947 2947 2947 2948 2947 2947 2947 2946 2945 2945 2944 2944 2944 2943 2943 2943 2942 2941 2940 2938 2937 2935 2934 2932 2930 2928 2927 2925 2924 2922 2920
2890 2890 2889 2889 2890 2891 2892 2893 2894 2894 2895 2896 2897 2899 2902 2903 2905 2907 2908 2909 2910 2912 2914 2916 2917 2918 2919 2920 2921 2922 2923 2924 2925 2926 2927 2928 2929 2930 2930 2931 2932 2932 2933 2934 2936 2937 2938 2938 2938 2939 2940 2940 2940 2941 2941 2942 2942 2943 2942 2942 2941 2941 2940 2940 2939 2939 2938 2938 2937 2937 2936 2935 2933 2932 2930 2928 2926 2925 2923 2921 2920 2918 2916 2915 2913
2884 2884 2883 2883 2883 2883 2884 2885 2887 2888 2889 2889 2890 2892 2893 2895 2898 2899 2901 2902 2904 2905 2907 2908 2910 2911 2912 2913 2914 2915 2916 2917 2918 2920 2921 2922 2923 2924 2925 2925 2926 2927 2928 2929 2931 2932 2933 2933 2933 2934 2934 2934 2935 2935 2936 2936 2937 2937 2937 2936 2936 2936 2935 2935 2934 2934 2933 2932 2931 2930 2929 2928 2926 2925 2923 2922 2920 2918 2916 2914 2912 2911 2909 2907 2905
2878 2878 2877 2877 2876 2876 2877 2878 2879 2881 2882 2884 2885 2885 2887 2888 2890 2892 2895 2896 2898 2899 2900 2901 2903 2904 2905 2906 2907 2908 2909 2910 2911 2913 2915 2916 2917 2918 2919 2920 2921 2922 2923 2924 2925 2926 2927 2928 2928 2929 2929 2930 2930 2930 2930 2931 2931 2931 2931 2931 2930 2930 2930 2929 2929 2928 2927 2926 2924 2923 2922 2921 2920 2918 2917 2915 2913 2911 2909 2907 2905 2904 2902 2900 2898
2872 2872 2871 2871 2870 2870 2871 2871 2872 2873 2875 2876 2878 2879 2880 2881 2883 2885 2887 2890 2892 2893 2894 2895 2896 2897 2899 2900 2900 2901 2902 2904 2905 2907 2909 2910 2911 2912 2913 2914 2916 2917 2918 2919 2920 2921 2922 2923 2924 2924 2924 2925 2925 2925 2925 2925 2925 2925 2925 2925 2925 2924 2924 2923 2922 2921 2920 2919 2918 2917 2916 2914 2913 2912 2910 2909 2907 2905 2903 2902 2900 2898 2896 2894 2891
2867 2866 2865 2865 2865 2865 2865 2865 2866 2866 2867 2868 2870 2871 2872 2874 2875 2878 2881 2883 2885 2887 2888 2889 2890 2891 2891 2892 2893 2894 2895 2896 2898 2899 2901 2903 2904 2905 2907 2909 2910 2912 2913 2914 2915 2916 2917 2918 2918 2919 2919 2920 2920 2920 2920 2920 2920 2920 2920 2920 2919 2919 2918 2917 2916 2915 2914 2913 2912 2911 2909 2908 2907 2905 2904 2903 2901 2900 2898 2896 2894 2892 2890 2887 2885
2861 2860 2860 2859 2859 2859 2859 2859 2859 2860 2860 2861 2861 2863 2865 2866 2868 2871 2874 2877 2879 2880 2881 2882 2883 2884 2884 2884 2885 2886 2887 2888 2889 2891 2893 2896 2898 2900 2902 2904 2906 2907 2908 2909 2910 2911 2912 2913 2913 2913 2914 2914 2915 2915 2915 2915 2915 2915 2915 2914 2914 2913 2912 2911 2910 2909 2908 2907 2906 2905 2903 2902 2901 2899 2898 2897 2896 2894 2892 2890 2888 2885 2883 2880 2879
2855 2855 2854 2854 2853 2853 2853 2853 2854 2854 2854 2854 2854 2855 2857 2859 2861 2864 2866 2868 2871 2872 2873 2875 2876 2877 2877 2877 2878 2879 2880 2882 2883 2884 2887 2889 2892 2895 2897 2899 2901 2902 2904 2904 2905 2906 2906 2907 2907 2908 2909 2909 2909 2909 2909 2910 2910 2909 2909 2909 2908 2907 2906 2905 2904 2904 2902 2901 2900 2899 2898 2897 2895 2894 2893 2891 2890 2888 2885 2883 2881 2878 2876 2874 2872
2850 2850 2849 2849 2848 2848 2848 2848 2849 2849 2849 2849 2849 2850 2852 2854 2856 2858 2859 2861 2864 2865 2867 2868 2868 2868 2869 2871 2871 2872 2875 2877 2878 2879 2881 2884 2887 2890 2892 2894 2896 2897 2898 2899 2899 2900 2901 2901 2902 2903 2903 2903 2903 2904 2904 2904 2904 2903 2903 2902 2902 2901 2900 2899 2898 2897 2896 2895 2894 2893 2892 2890 2889 2887 2885 2883 2882 2880 2877 2875 2873 2871 2869 2868 2866
2845 2845 2845 2844 2844 2844 2843 2843 2844 2844 2845 2845 2845 2846 2847 2848 2849 2850 2852 2854 2857 2858 2859 2860 2861 2861 2862 2864 2865 2866 2868 2870 2871 2873 2876 2879 2881 2884 2886 2888 2890 2891 2892 2893 2893 2894 2895 2896 2896 2897 2897 2897 2897 2897 2897 2897 2897 2897 2896 2896 2895 2894 2893 2892 2892 2891 2890 2888 2887 2886 2884 2882 2880 2879 2877 2875 2874 2872 2870 2868 2867 2865 2863 2862 2860
2840 2840 2840 2840 2840 2840 2840 2840 2840 2840 2840 2841 2841 2842 2843 2843 2844 2846 2847 2848 2850 2851 2852 2854 2855 2855 2856 2857 2858 2860 2862 2864 2865 2868 2871 2873 2876 2878 2880 2882 2883 2885 2886 2887 2888 2889 2890 2890 2890 2890 2890 2891 2891 2891 2891 2890 2890 2890 2889 2889 2888 2887 2886 2885 2884 2883 2882 2881 2879 2878 2876 2874 2873 2871 2870 2868 2867 2865 2864 2862 2861 2859 2857 2855 2853
2835 2835 2835 2835 2835 2835 2835 2835 2836 2836 2836 2837 2837 2838 2839 2840 2841 2842 2843 2844 2844 2845 2846 2847 2848 2849 2849 2849 2851 2852 2854 2857 2860 2863 2866 2869 2871 2874 2876 2877 2878 2879 2880 2881 2882 2883 2884 2884 2884 2884 2884 2884 2884 2884 2884 2883 2883 2883 2882 2881 2880 2879 2878 2877 2876 2875 2874 2873 2871 2870 2869 2867 2866 2865 2863 2862 2861 2859 2858 2857 2854 2852 2850 2847 2844
2830 2830 2830 2830 2830 2830 2830 2831 2831 2831 2832 2832 2833 2834 2834 2835 2836 2837 2838 2838 2839 2839 2840 2840 2841 2842 2842 2843 2844 2846 2848 2852 2855 2858 2861 2864 2867 2869 2871 2872 2873 2874 2875 2875 2876 2877 2877 2877 2877 2877 2877 2877 2877 2877 2877 2876 2876 2875 2874 2874 2873 2872 2871 2870 2869 2868 2867 2866 2865 2864 2862 2861 2860 2858 2857 2856 2855 2853 2851 2849 2847 2844 2841 2838 2836
2825 2825 2824 2825 2825 2825 2826 2826 2826 2827 2827 2827 2828 2828 2829 2830 2830 2831 2832 2832 2833 2834 2835 2836 2837 2838 2839 2841 2842 2843 2845 2848 2851 2853 2856 2858 2861 2863 2865 2867 2868 2869 2869 2869 2870 2870 2870 2870 2870 2870 2870 2870 2870 2870 2870 2869 2869 2868 2868 2867 2866 2865 2864 2863 2862 2861 2860 2859 2858 2857 2856 2854 2853 2852 2850 2849 2848 2845 2843 2841 2838 2835 2833 2829 2827
2821 2820 2820 2820 2820 2820 2821 2821 2822 2822 2822 2822 2823 2823 2824 2824 2825 2826 2827 2828 2829 2830 2831 2832 2833 2835 2836 2838 2839 2840 2841 2843 2846 2848 2851 2853 2855 2858 2859 2861 2862 2863 2863 2863 2863 2864 2864 2864 2864 2864 2864 2864 2864 2863 2863 2863 2862 2862 2861 2860 2859 2858 2858 2857 2856 2855 2854 2853 2851 2850 2849 2848 2846 2845 2843 2841 2839 2837 2835 2832 2829 2827 2824 2821 2818
2817 2817 2817 2817 2817 2817 2817 2817 2818 2818 2818 2819 2819 2819 2820 2820 2821 2822 2823 2824 2825 2826 2827 2828 2829 2830 2832 2833 2834 2836 2838 2840 2842 2844 2846 2848 2850 2852 2854 2855 2856 2857 2857 2857 2857 2858 2858 2858 2858 2858 2857 2857 2857 2857 2857 2856 2856 2855 2854 2854 2853 2852 2851 2850 2850 2849 2847 2846 2845 2844 2842 2841 2839 2837 2835 2833 2831 2829 2826 2823 2821 2818 2815 2812 2809
2814 2814 2814 2814 2814 2814 2814 2814 2815 2815 2815 2815 2816 2816 2816 2817 2817 2818 2819 2820 2821 2822 2822 2823 2824 2826 2827 2828 2830 2831 2833 2835 2837 2839 2841 2842 2844 2846 2848 2849 2850 2850 2851 2851 2851 2851 2851 2851 2851 2851 2851 2851 2851 2850 2850 2849 2849 2848 2847 2846 2846 2845 2844 2844 2843 2842 2841 2840 2838 2837 2835 2834 2832 2830 2828 2825 2822 2820 2817 2814 2812 2808 2805 2802 2799
2811 2811 2811 2811 2811 2811 2811 2812 2812 2812 2812 2813 2813 2813 2813 2813 2814 2815 2816 2817 2817 2818 2819 2819 2821 2822 2823 2824 2826 2828 2829 2830 2832 2834 2835 2837 2839 2841 2842 2843 2844 2844 2845 2845 2845 2845 2845 2845 2845 2845 2844 2844 2844 2844 2843 2843 2842 2841 2840 2839 2838 2838 2837 2836 2836 2835 2834 2832 2831 2829 2828 2826 2824 2822 2819 2816 2814 2812 2809 2805 2803 2799 2795 2792 2788
2808 2808 2808 2808 2808 2808 2808 2808 2808 2809 2809 2810 2810 2810 2811 2811 2812 2812 2813 2814 2815 2815 2816 2817 2818 2819 2821 2822 2823 2825 2826 2827 2828 2829 2831 2833 2834 2836 2837 2838 2838 2839 2839 2839 2839 2839 2838 2838 2838 2837 2837 2837 2837 2836 2836 2835 2834 2834 2833 2832 2831 2830 2829 2829 2828 2827 2826 2825 2823 2822 2820 2818 2816 2813 2811 2808 2806 2803 2800 2797 2794 2790 2786 2783 2779
2805 2805 2805 2805 2805 2805 2805 2805 2805 2805 2806 2806 2806 2807 2807 2808 2809 2809 2810 2811 2812 2813 2813 2814 2815 2817 2818 2819 2820 2821 2822 2823 2824 2825 2827 2828 2829 2830 2831 2832 2833 2833 2833 2833 2832 2832 2831 2830 2830 2830 2830 2829 2829 2828 2828 2828 2827 2827 2826 2825 2824 2823 2822 2821 2820 2819 2818 2817 2816 2814 2812 2810 2808 2805 2803 2800 2798 2795 2792 2788 2785 2782 2779 2775 2772
2803 2802 2802 2802 2802 2802 2802 2802 2802 2802 2802 2802 2803 2803 2803 2804 2805 2805 2806 2807 2808 2809 2809 2810 2811 2812 2813 2814 2815 2816 2817 2818 2819 2820 2821 2822 2823 2824 2824 2825 2825 2825 2825 2825 2824 2824 2823 2823 2822 2822 2822 2821 2821 2821 2820 2820 2820 2819 2819 2818 2817 2816 2815 2814 2813 2812 2811 2810 2808 2806 2804 2802 2800 2798 2796 2793 2790 2787 2784 2781 2778 2775 2772 2768 2764
2799 2799 2799 2799 2799 2799 2798 2799 2799 2799 2799 2799 2799 2799 2799 2800 2800 2801 2802 2802 2803 2804 2804 2805 2806 2807 2808 2809 2810 2810 2811 2812 2812 2813 2813 2814 2814 2815 2815 2816 2816 2816 2816 2816 2816 2816 2816 2816 2815 2815 2814 2814 2814 2813 2813 2813 2813 2812 2812 2811 2810 2809 2808 2807 2805 2804 2803 2801 2800 2798 2797 2795 2793 2791 2788 2786 2782 2779 2777 2775 2772 2768 2765 2761 2757
2795 2795 2795 2795 2795 2795 2795 2795 2795 2795 2795 2795 2795 2795 2795 2795 2795 2796 2796 2797 2797 2798 2798 2799 2800 2801 2801 2802 2803 2804 2804 2805 2805 2805 2806 2806 2806 2807 2807 2807 2808 2808 2808 2808 2808 2809 2809 2809 2808 2808 2808 2807 2807 2807 2807 2807 2806 2806 2805 2804 2803 2802 2801 2800 2799 2797 2795 2794 2793 2792 2790 2789 2787 2784 2781 2779 2776 2774 2772 2769 2766 2761 2758 2754 2751
2791 2791 2791 2790 2790 2790 2790 2790 2790 2790 2790 2790 2790 2790 2790 2790 2791 2791 2791 2791 2792 2792 2793 2793 2794 2794 2795 2795 2796 2797 2797 2798 2798 2799 2799 2799 2799 2800 2800 2800 2801 2801 2801 2801 2802 2802 2802 2802 2802 2802 2801 2801 2801 2801 2801 2801 2800 2800 2799 2798 2797 2796 2795 2793 2792 2790 2789 2788 2787 2785 2784 2782 2780 2778 2776 2774 2772 2769 2766 2763 2759 2755 2752 2749 2745
2787 2787 2786 2786 2786 2786 2786 2786 2786 2786 2785 2785 2785 2785 2785 2786 2786 2786 2786 2786 2786 2787 2787 2787 2788 2788 2789 2789 2789 2790 2790 2791 2791 2792 2792 2793 2793 2793 2794 2794 2794 2795 2795 2795 2795 2795 2796 2796 2795 2795 2795 2795 2795 2795 2795 2794 2794 2793 2792 2792 2791 2789 2788 2786 2785 2784 2783 2782 2780 2779 2777 2775 2774 2773 2771 2769 2766 2763 2759 2756 2753 2750 2747 2743 2740
2783 2782 2782 2782 2782 2781 2781 2781 2781 2781 2781 2781 2781 2781 2781 2781 2781 2781 2781 2781 2781 2781 2782 2782 2782 2783 2783 2783 2784 2784 2784 2785 2785 2785 2786 2786 2787 2787 2787 2788 2788 2788 2789 2789 2789 2790 2790 2790 2790 2789 2789 2789 2789 2789 2789 2788 2788 2787 2786 2785 2784 2783 2782 2780 2779 2778 2777 2776 2774 2773 2772 2771 2770 2769 2767 2764 2760 2757 2753 2750 2748 2745 2742 2738 2735
2779 2779 2778 2778 2777 2777 2777 2777 2776 2776 2776 2776 2776 2776 2776 2776 2776 2776 2776 2776 2776 2776 2776 2777 2777 2777 2778 2778 2778 2778 2778 2779 2779 2779 2780 2780 2781 2781 2781 2782 2782 2782 2783 2783 2784 2784 2784 2784 2784 2784 2784 2784 2784 2783 2783 2782 2782 2781 2780 2779 2779 2778 2777 2775 2774 2773 2771 2770 2770 2769 2768 2767 2766 2764 2761 2758 2754 2751 2749 2746 2743 2740 2737 2733 2729
2776 2775 2775 2774 2774 2773 2773 2773 2772 2772 2772 2771 2771 2771 2771 2771 2771 2771 2771 2771 2771 2771 2771 2771 2772 2772 2772 2772 2772 2773 2773 2773 2773 2774 2774 2775 2775 2775 2776 2776 2776 2777 2777 2778 2778 2779 2779 2779 2779 2779 2779 2779 2778 2778 2778 2777 2776 2776 2775 2775 2774 2773 2772 2771 2770 2769 2768 2767 2766 2766 2765 2763 2761 2758 2755 2752 2750 2747 2745 2742 2739 2735 2732 2728 2724